Vossem Meer informatie Vossem


Tervuren markt Meer informatie Tervuren markt


Tervuren park Meer informatie Tervuren park


Bezoek onze andere website:

Meteotemplate

Home Weather Station

Saratoga


Lokaal brand risico:
CBI


Regionaal brand risico: Meer informatie



Select another period ( hide this area )

Eenheden Periode Custom range Directly to
Metrisch Engels Beide
Dagelijkse Wekelijkse Maandelijkse Jaarlijkse
use both date-selectors for a custom range
previous Dag
With this date

WeatherUnderground graphs for this period ( click here )


Dagelijkse Samenvatting Donderdag 12 december 2019
Tijd Temp. ( °C ) Dew pt. ( °C ) Wind ( km/h ) van Vlaag ( km/h ) Luchtdruk ( hPa ) Humid.( % ) Rainrate ( cm )
Hoog5,0 3,9 3,2 WZW ( 23/50 ) 9,7 1002,9 93 -
Gemiddeld4,8 3,6 1,5 WZW #12/34 4,5 1002,3 92 -
Laag4,4 3,1 -   0,0 1001,9 91 -
Dagelijkse Tabular details for Donderdag 12 december 2019
Tijd Temp. ( °C ) Dew pt. ( °C ) Wind ( km/h ) van Vlaag ( km/h ) Luchtdruk ( hPa ) Humid.( % ) Rainrate ( cm )
00:01 4,9 3,6   Kalm   1002,9 91 -
00:05 4,8 3,5   Kalm 3,2 1002,6 91 -
00:11 4,7 3,5   Kalm 3,2 1002,6 92 -
00:15 4,7 3,5   Kalm 4,8 1002,6 92 -
00:21 4,7 3,5   Kalm 1,6 1002,6 92 -
00:25 4,8 3,6 1,8 WZW 3,2 1002,6 92 -
00:31 4,8 3,8 1,8 WZW 3,2 1002,6 93 -
00:35 4,9 3,9 3,2 ZW 4,8 1002,6 93 -
00:41 4,9 3,9 3,2 ZW 6,4 1002,3 93 -
00:45 4,9 3,7   Kalm 4,8 1002,3 92 -
00:51 4,9 3,7 1,8 ZW 6,4 1002,3 92 -
00:55 4,9 3,7 3,2 ZW 8,0 1002,3 92 -
01:01 4,9 3,7 3,2 Westen 4,8 1002,3 92 -
01:05 4,9 3,7 1,8 WZW 8,0 1002,3 92 -
01:11 4,9 3,7 1,8 ZW 6,4 1002,3 92 -
01:15 4,9 3,7 3,2 WZW 3,2 1002,3 92 -
01:21 4,9 3,7   Kalm 3,2 1002,3 92 -
01:25 4,9 3,7 1,8 WZW 3,2 1002,3 92 -
01:31 4,9 3,7 1,8 WZW 9,7 1002,3 92 -
01:35 5,0 3,7 1,8 WZW 4,8 1002,3 91 -
01:41 4,9 3,6   Kalm 4,8 1002,3 91 -
01:45 4,9 3,6 1,8 Westen 6,4 1002,3 91 -
01:51 4,8 3,5 1,8 WZW 3,2 1001,9 91 -
01:55 4,8 3,5 1,8 WZW 4,8 1002,3 91 -
02:01 4,7 3,4   Kalm 6,4 1002,3 91 -
02:05 4,7 3,4 1,8 WNW 4,8 1002,3 91 -
02:11 4,7 3,4   Kalm 4,8 1002,3 91 -
02:15 4,7 3,4 1,8 ZW 3,2 1002,3 91 -
02:21 4,7 3,4 3,2 ZZW 3,2 1002,3 91 -
02:25 4,7 3,4   Kalm 3,2 1002,3 91 -
02:31 4,7 3,4 1,8 ZW 3,2 1002,3 91 -
02:35 4,6 3,3 1,8 WZW 4,8 1002,3 91 -
02:41 4,4 3,1 1,8 WZW 3,2 1001,9 91 -
02:45 4,4 3,1 1,8 WZW 3,2 1001,9 91 -
Dagelijkse Samenvatting Donderdag 12 december 2019
Tijd Temp. ( °C ) Dew pt. ( °C ) Wind ( km/h ) van Vlaag ( km/h ) Luchtdruk ( hPa ) Humid.( % ) Rainrate ( cm )
Hoog5,0 3,9 3,2 WZW ( 23/50 ) 9,7 1002,9 93 -
Gemiddeld4,8 3,6 1,5 WZW #12/34 4,5 1002,3 92 -
Laag4,4 3,1 -   0,0 1001,9 91 -
Dagelijkse Tabular details for Donderdag 12 december 2019
Tijd Temp. ( °C ) Dew pt. ( °C ) Wind ( km/h ) van Vlaag ( km/h ) Luchtdruk ( hPa ) Humid.( % ) Rainrate ( cm )
00:01 4,9 3,6   Kalm   1002,9 91 -
00:05 4,8 3,5   Kalm 3,2 1002,6 91 -
00:11 4,7 3,5   Kalm 3,2 1002,6 92 -
00:15 4,7 3,5   Kalm 4,8 1002,6 92 -
00:21 4,7 3,5   Kalm 1,6 1002,6 92 -
00:25 4,8 3,6 1,8 WZW 3,2 1002,6 92 -
00:31 4,8 3,8 1,8 WZW 3,2 1002,6 93 -
00:35 4,9 3,9 3,2 ZW 4,8 1002,6 93 -
00:41 4,9 3,9 3,2 ZW 6,4 1002,3 93 -
00:45 4,9 3,7   Kalm 4,8 1002,3 92 -
00:51 4,9 3,7 1,8 ZW 6,4 1002,3 92 -
00:55 4,9 3,7 3,2 ZW 8,0 1002,3 92 -
01:01 4,9 3,7 3,2 Westen 4,8 1002,3 92 -
01:05 4,9 3,7 1,8 WZW 8,0 1002,3 92 -
01:11 4,9 3,7 1,8 ZW 6,4 1002,3 92 -
01:15 4,9 3,7 3,2 WZW 3,2 1002,3 92 -
01:21 4,9 3,7   Kalm 3,2 1002,3 92 -
01:25 4,9 3,7 1,8 WZW 3,2 1002,3 92 -
01:31 4,9 3,7 1,8 WZW 9,7 1002,3 92 -
01:35 5,0 3,7 1,8 WZW 4,8 1002,3 91 -
01:41 4,9 3,6   Kalm 4,8 1002,3 91 -
01:45 4,9 3,6 1,8 Westen 6,4 1002,3 91 -
01:51 4,8 3,5 1,8 WZW 3,2 1001,9 91 -
01:55 4,8 3,5 1,8 WZW 4,8 1002,3 91 -
02:01 4,7 3,4   Kalm 6,4 1002,3 91 -
02:05 4,7 3,4 1,8 WNW 4,8 1002,3 91 -
02:11 4,7 3,4   Kalm 4,8 1002,3 91 -
02:15 4,7 3,4 1,8 ZW 3,2 1002,3 91 -
02:21 4,7 3,4 3,2 ZZW 3,2 1002,3 91 -
02:25 4,7 3,4   Kalm 3,2 1002,3 91 -
02:31 4,7 3,4 1,8 ZW 3,2 1002,3 91 -
02:35 4,6 3,3 1,8 WZW 4,8 1002,3 91 -
02:41 4,4 3,1 1,8 WZW 3,2 1001,9 91 -
02:45 4,4 3,1 1,8 WZW 3,2 1001,9 91 -

Download your copy of this data-set  here

Our weather-data as stored at Weather Underground. Script ontwikkeld door Jim McMurry. Aangepast voor de template door Leuven-Template.eu

U vindt ons ook hier:

Het Weer Aktueel

UK Metoffice

European Weather Network

WeatherCloud

Weather Underground

Benelux Weer Netwerk

AWEKAS

Citizen Weather Observer Program (CWOP)

Apparatuur in gebruik:

Weerstation
Davis VP2

Weerprogramma
Meteobridge

Weercomputer
TP-Link MR3020

Davis VP2

Meteobridge

TP-Link MR3020